Flag for U.S.A. Weather past 2 weeks in Chandler, Arizona, U.S.A.

Now
81 °F

Clear.


Feels Like: 80 °F
Forecast: 83 / 108 °F
Wind: 7 mph from Southeast

Location: Williams Gateway Airport

Current Time: Aug 4, 2015 at 5:21:46 AM

Latest Report: Aug 4, 2015 at 4:59 AM


Visibility: 20 mi

Pressure: 29.88 "Hg

Humidity: 39%

Dew point: 54 °F

Location of ChandlerLocation

Historic Weather in Chandler — Graph

°F

Chandler temperature yesterday

Maximum temperature yesterday: 106 °F (at 2:47 PM)
Minimum temperature yesterday: 81 °F (at 1:55 AM)
Average temperature yesterday: 90 °F

Past Weeks' High & Low Weather Summary

 TemperatureHumidityPressure
High106 °F (Jul 25, 3:47 PM)79% (Jul 31, 7:55 PM)30.07 "Hg (Jul 31, 7:55 PM)
Low75 °F (Jul 22, 5:50 AM)8% (Jul 25, 5:47 PM)29.74 "Hg (Jul 21, 6:47 PM)
Average88 °F35%29.90 "Hg
* Reported Jul 20 4:15 AM — Aug 4 4:15 AM, Chandler, Weather by CustomWeather, © 2015

Note: Actual official high and low records may vary slightly from our data, if they occured in-between our weather recording intervals... More about our weather records

Advertising

Chandler weather history for previous 24 hours

 ConditionsComfort  
Time TempWeatherWind HumidityBarometerVisibility
4:15 AM
Tue, Aug 4
79 °FClear.7 mph39%29.86 "Hg10 mi
3:55 AM79 °FClear.9 mph39%29.86 "Hg10 mi
3:35 AM81 °FClear.No wind37%29.85 "Hg10 mi
3:15 AM86 °FClear.3 mph25%29.85 "Hg10 mi
2:55 AM82 °FClear.No wind28%29.84 "Hg10 mi
2:35 AM82 °FClear.No wind26%29.84 "Hg10 mi
2:15 AM82 °FClear.3 mph25%29.83 "Hg10 mi
1:55 AM82 °FClear.5 mph25%29.83 "Hg10 mi
1:35 AM82 °FClear.6 mph26%29.83 "Hg10 mi
1:15 AM84 °FClear.No wind25%29.83 "Hg10 mi
12:55 AM86 °FClear.No wind25%29.82 "Hg10 mi
12:35 AM86 °FClear.3 mph24%29.83 "Hg10 mi
12:15 AM86 °FClear.No wind27%29.83 "Hg10 mi
11:50 PM
Mon, Aug 3
88 °FClear.5 mph27%29.82 "Hg20 mi
10:47 PM90 °FClear.3 mph24%29.82 "Hg20 mi
9:47 PM97 °FClear.3 mph18%29.82 "Hg20 mi
8:51 PM99 °FExtremely hot.2 mph17%29.80 "HgN/A
7:47 PM100 °FPassing clouds.5 mph16%29.79 "Hg20 mi
6:47 PM104 °FSunny.6 mph13%29.78 "Hg45 mi
3:49 PM106 °FPassing clouds.6 mph14%29.80 "Hg45 mi
2:47 PM106 °FPassing clouds.7 mph17%29.83 "Hg45 mi
1:47 PM104 °FPassing clouds.5 mph17%29.86 "Hg45 mi
12:47 PM102 °FPassing clouds.7 mph20%29.88 "Hg45 mi
11:47 AM100 °FPassing clouds.No wind21%29.89 "Hg45 mi
10:47 AM97 °FPassing clouds.No wind23%29.90 "Hg45 mi
9:47 AM95 °FPassing clouds.No wind25%29.91 "Hg45 mi
8:47 AM91 °FPassing clouds.5 mph30%29.90 "Hg45 mi
7:47 AM88 °FPassing clouds.7 mph33%29.88 "Hg45 mi
6:47 AM84 °FPassing clouds.7 mph35%29.87 "Hg35 mi
5:47 AM82 °FSunny.9 mph37%29.85 "Hg35 mi
Weather by CustomWeather, © 2015

See weather overviewHow to use our weather pages